[keps] orb08318.2l.amsat
Ray Hoad
r.hoad at att.net
Thu Nov 13 19:51:07 PST 2008
SB KEPS @ AMSAT $ORB08318.N
2Line Orbital Elements 08318.AMSAT
HR AMSAT ORBITAL ELEMENTS FOR AMATEUR SATELLITES IN NASA FORMAT
FROM WA5QGD FORT WORTH,TX November 13, 2008
Send Subscribe/unsubscribe to KEPS at
http://www.amsat.org/mailman/listinfo/keps
BID: ORB08318.N
DECODE 2-LINE ELSETS WITH THE FOLLOWING KEY:
1 AAAAAU 00 0 0 BBBBB.BBBBBBBB .CCCCCCCC 00000-0 00000-0 0 DDDZ
2 AAAAA EEE.EEEE FFF.FFFF GGGGGGG HHH.HHHH III.IIII JJ.JJJJJJJJKKKKKZ
KEY: A-CATALOGNUM B-EPOCHTIME C-DECAY D-ELSETNUM E-INCLINATION F-RAAN
G-ECCENTRICITY H-ARGPERIGEE I-MNANOM J-MNMOTION K-ORBITNUM Z-CHECKSUM
TO ALL RADIO AMATEURS BT
AO-07
1 07530U 74089B 08318.69126577 -.00000027 00000-0 10000-3 0 3264
2 07530 101.4517 345.1050 0011811 330.7597 029.2809 12.53574495555718
AO-10
1 14129U 83058B 08314.83214155 -.00000010 00000-0 10000-3 0 05875
2 14129 026.0363 186.6926 5959023 172.1256 204.7554 02.05869528191108
UO-11
1 14781U 84021B 08318.22876649 .00000259 00000-0 41722-4 0 8120
2 14781 098.1393 354.3632 0008395 318.3018 041.7533 14.79677007325899
RS-15
1 23439U 94085A 08316.95150651 -.00000039 00000-0 10000-3 0 01648
2 23439 064.8154 256.1023 0145684 094.1264 267.6324 11.27552649571627
FO-29
1 24278U 96046B 08316.87870910 -.00000044 00000-0 -82787-5 0 9049
2 24278 098.5773 213.7672 0350453 193.0799 166.1074 13.52939547604362
SO-33
1 25509U 98061B 08317.79299660 -.00000172 00000-0 -48966-4 0 3221
2 25509 031.4335 196.0934 0355172 246.5219 109.7683 14.28231382524870
AO-40
1 26609U 00072B 08318.43241246 -.00000156 00000-0 10000-3 0 1515
2 26609 008.0927 049.4587 7937357 144.1388 312.4982 01.25585962 36919
VO-52
1 28650U 05017B 08317.79319430 -.00000147 00000-0 -11980-4 0 807
2 28650 097.7731 020.1869 0027534 018.3657 341.8538 14.81518619190606
PO-63
1 29712U 07001D 08318.74904193 .00000566 00000-0 80972-4 0 9667
2 29712 097.8591 014.0001 0013142 255.1713 104.8047 14.80333406 99591
AO-16
1 20439U 90005D 08318.47947188 .00000030 00000-0 26503-4 0 4628
2 20439 098.2506 291.0584 0011884 091.6428 268.6121 14.31808121982285
LO-19
1 20442U 90005G 08317.73349068 .00000147 00000-0 69620-4 0 3864
2 20442 098.2161 298.4116 0012908 091.9420 268.3230 14.32046102982339
AO-27
1 22825U 93061C 08317.82582759 .00000173 00000-0 84721-4 0 1059
2 22825 098.4064 272.4251 0008501 176.4784 183.6452 14.29252251789002
IO-26
1 22826U 93061D 08318.55391851 .00000018 00000-0 23464-4 0 8201
2 22826 098.3995 273.9709 0008903 170.7824 189.3523 14.29501658789209
GO-32
1 25397U 98043D 08318.79397184 -.00000182 00000-0 -62597-4 0 7464
2 25397 098.3500 346.4547 0001743 133.0344 227.0974 14.23149814537495
NO-44
1 26931U 01043C 08317.81891212 -.00000275 00000-0 -75018-4 0 240
2 26931 067.0522 261.7569 0006806 255.2252 104.8100 14.29537256371654
SO-50
1 27607U 02058C 08318.05837273 -.00000050 00000-0 14508-4 0 7437
2 27607 064.5582 321.5073 0084781 250.5845 108.6077 14.71394541316875
CO-55
1 27844U 03031E 08317.76817534 .00000059 00000-0 47939-4 0 4391
2 27844 098.7173 323.9836 0010765 050.3399 309.8723 14.20606112278534
CO-57
1 27848U 03031J 08317.57499602 .00000022 00000-0 30479-4 0 3903
2 27848 098.7174 322.8658 0010541 053.9816 306.2344 14.20412725278472
AO-51
1 28375U 04025K 08318.58620439 .00000015 00000-0 16892-4 0 2431
2 28375 098.0616 334.6921 0085182 059.4614 301.4952 14.40624095229910
CO-56
1 28941U 06005C 08318.80470968 .00048464 32255-5 29829-3 0 5488
2 28941 098.1203 090.9598 0140791 214.3998 144.8165 15.64718383153371
CP3
1 31128U 07012M 08317.91064049 -.00000048 00000-0 00000 0 0 4804
2 31128 098.0235 014.9224 0102005 234.4583 124.7073 14.51989746 83518
CP4
1 31132U 07012Q 08318.16924274 .00000280 00000-0 72344-4 0 4589
2 31132 098.0229 018.0656 0084905 225.2331 134.1928 14.55157633 83618
CO-65
1 32785U 08021C 08318.86741468 .00000151 00000-0 26121-4 0 2097
2 32785 097.9770 018.2755 0015384 015.2316 344.9350 14.81413989 29561
NOAA-10
1 16969U 86073A 08318.46514570 -.00000065 00000-0 -84245-5 0 3677
2 16969 098.7124 340.0699 0013002 104.6558 255.6068 14.27372380152737
NOAA-11
1 19531U 88089A 08318.59289622 .00000076 00000-0 62036-4 0 3937
2 19531 098.7949 045.8055 0011815 006.5149 353.6192 14.14881471 39038
NOAA-12
1 21263U 91032A 08318.77324949 .00000052 00000-0 40915-4 0 9040
2 21263 098.7726 320.7547 0013371 052.9143 307.3256 14.25554225909708
MET-3/5
1 21655U 91056A 08318.24489659 .00000051 00000-0 10000-3 0 5140
2 21655 082.5561 359.0718 0013928 006.3436 353.7860 13.17016888829202
MET-2/21
1 22782U 93055A 08318.46605286 .00000049 00000-0 31277-4 0 3003
2 22782 082.5497 353.1506 0021196 229.3930 130.5389 13.83631542767777
OKEAN-4
1 23317U 94066A 08318.81551165 .00000224 00000-0 24767-4 0 7461
2 23317 082.5402 175.4596 0022470 358.5343 001.5779 14.82650937760458
NOAA-14
1 23455U 94089A 08318.45508558 .00000072 00000-0 61572-4 0 3863
2 23455 098.9347 030.6750 0010269 083.9043 276.3293 14.13752549715441
NOAA-15
1 25338U 98030A 08318.59422502 .00000018 00000-0 25993-4 0 6965
2 25338 098.5669 306.7544 0010236 331.5921 028.4712 14.24732222546076
RESURS
1 25394U 98043A 08318.68505231 -.00000007 00000-0 14876-4 0 693
2 25394 098.3691 355.6958 0002120 098.1142 262.0278 14.24175063537726
FENGYUN1
1 25730U 99025A 08317.88661129 .00000879 00000-0 54231-3 0 6137
2 25730 098.7384 288.7424 0021593 102.7029 257.6548 14.07852671489889
OKEAN-0
1 25860U 99039A 08317.89706701 .00000059 00000-0 16365-4 0 5229
2 25860 097.7648 301.9822 0001383 095.9743 264.1627 14.73544264501296
NOAA-16
1 26536U 00055A 08318.59994414 .00000282 00000-0 17757-3 0 1698
2 26536 099.1692 311.1493 0010659 162.4697 197.6830 14.12503857419866
NOAA-17
1 27453U 02032A 08318.50544873 .00000088 00000-0 56616-4 0 1721
2 27453 098.5181 018.6735 0012235 037.3497 322.8575 14.24016999332051
NOAA-18
1 28654U 05018A 08318.44258958 .00000008 00000-0 28678-4 0 6590
2 28654 098.8836 257.6284 0013497 252.0936 107.8750 14.11208837179521
HUBBLE
1 20580U 90037B 08317.67866537 .00000359 00000-0 14944-4 0 2616
2 20580 028.4682 074.6869 0003918 162.4520 197.6204 15.00427267817300
PO-34
1 25520U 98064B 08318.90842479 .00000498 00000-0 14674-4 0 1218
2 25520 028.4611 256.3682 0005383 119.4091 240.7041 15.17258018555926
ISS
1 25544U 98067A 08318.67148292 .00010913 00000-0 84099-4 0 6455
2 25544 051.6436 330.0973 0003809 346.3452 121.7147 15.72579683572054
CO-58
1 28895U 05043F 08318.41859607 .00000149 00000-0 40930-4 0 1686
2 28895 098.0807 208.7543 0016948 305.0566 054.9030 14.59714428162250
FALCON
1 30776U 07006E 08318.23492545 .00000463 00000-0 36717-4 0 4378
2 30776 035.4340 329.4853 0001115 254.5624 105.4968 15.03101047 92583
MAST
1 31126U 07012K 08318.63034323 .00000140 00000-0 42433-4 0 4605
2 31126 098.0215 016.9496 0093895 228.3673 130.9457 14.53457801 83727
CAPE1
1 31130U 07012P 08318.45506467 .00000196 00000-0 56308-4 0 4521
2 31130 098.0231 015.4520 0102006 232.7299 126.4568 14.52007742 83389
COMPASS
1 32787U 08021E 08318.72399283 .00000173 00000-0 28949-4 0 1990
2 32787 097.9720 018.0467 0016250 016.2942 343.8779 14.81495165 29542
AAUSAT2
1 32788U 08021F 08318.84425797 .00000032 00000-0 10875-4 0 1997
2 32788 097.9738 018.1938 0015810 018.8039 341.3708 14.81608214 29560
DO-64
1 32789U 08021G 08318.85900905 .00000341 00000-0 50210-4 0 2102
2 32789 097.9753 018.2598 0015932 015.8306 344.3394 14.81528415 29568
CO-66
1 32791U 08021J 08318.87844734 .00000365 00000-0 53552-4 0 1932
2 32791 097.9759 018.2250 0016511 014.1426 346.0227 14.81343694 29536
RS-30
1 32953U 08025A 08317.75278079 .00000010 00000-0 00000 0 0 1566
2 32953 082.5048 031.1984 0017848 291.6457 068.2724 12.42998120 21504
/EX
More information about the Keps
mailing list